Location: Castellare
(42.4669°N, 9.4728°E)
Time: 04:23:45
(UTC+00:00)

CZ-4C R/B - Pass Details

Date: 17 February 2020
Orbit: 641 x 1360 km, 63.4° (Epoch: 30 March)

Event Time Altitude Azimuth Distance (km) Brightness Sun altitude
Exits shadow 03:29:39 28° 2° (N) 1,560 3.6 -31.4°
Drops below altitude 10° 03:33:01 10° 25° (NNE) 2,628 5.2 -30.8°
Sets 03:36:00 0° 33° (NNE) 3,703 6.1 -30.2°
